This demonstration page uses our WeatherBlox Daily Observations layout. Learn more.

41.55636, -103.73856

Hourly Observations for May 19, 2018

Temp ( °F °C ) Dew Point ( °F °C ) Humidity (%) Winds ( mph kmh ) Pressure ( in mb ) Visibility ( mi km ) Precip ( " mm )
12:58 am 00:58 Cloudy with Heavy Rain 48 9.1 47 8.3 95 95 NNE 32 52 29.94 1014 5 8.0467 0.58 14.732
1:58 am 01:58 Cloudy with Rain 48 8.9 47 8.1 95 95 N 30 48 29.94 1014 8 12.87472 0.19 4.826
2:58 am 02:58 Cloudy with Rain 47 8.4 46 7.6 95 95 N 24 39 29.95 1014 10 16.0934 0.1 2.54
3:58 am 03:58 Cloudy with Rain 46 7.9 45 7.2 95 95 N 24 39 29.95 1014 9 14.48406 0.04 1.016
4:58 am 04:58 Cloudy with Rain 45 7.3 44 6.4 94 94 N 26 43 29.96 1015 8 12.87472 0.12 3.048
5:58 am 05:58 Cloudy with Rain 44 6.4 42 5.6 95 95 N 23 37 29.98 1015 9 14.48406 0.07 1.778
6:58 am 06:58 Cloudy with Rain 43 5.9 41 5.2 95 95 N 20 31 30.02 1017 8 12.87472 0.13 3.302
7:58 am 07:58 Cloudy with Rain 42 5.7 41 5 95 95 N 22 35 30.02 1017 10 16.0934 0.13 3.302
8:58 am 08:58 Cloudy with Rain 42 5.5 41 4.9 96 96 N 17 28 30.04 1017 10 16.0934 0.11 2.794
9:58 am 09:58 Cloudy with Rain 41 5.1 40 4.5 96 96 N 23 37 30.07 1018 10 16.0934 0.13 3.302
10:58 am 10:58 Cloudy with Light Rain 41 5.2 40 4.5 95 95 N 22 35 30.1 1019 10 16.0934 0.08 2.032
11:58 am 11:58 Cloudy with Light Rain 41 4.9 39 4.1 95 95 N 23 37 30.14 1021 10 16.0934 0.06 1.524
12:58 pm 12:58 Cloudy with Light Rain 41 4.8 39 3.8 93 93 N 24 39 30.15 1021 10 16.0934 0.06 1.524
1:58 pm 13:58 Cloudy with Rain/Snow 41 5.1 40 4.2 94 94 N 22 35 30.16 1021 8 12.87472 0.03 0.762
2:58 pm 14:58 Cloudy with Light Rain/Snow 41 5.1 40 4.4 95 95 N 20 31 30.18 1022 4 6.43736 0.09 2.286
3:58 pm 15:58 Cloudy with Light Rain/Snow 42 5.4 40 4.5 94 94 N 22 35 30.21 1023 5 8.0467 0.07 1.778
4:58 pm 16:58 Cloudy with Light Rain/Snow 41 5.1 40 4.3 95 95 N 20 31 30.22 1023 9 14.48406 0.05 1.27
5:58 pm 17:58 Cloudy with Light Drizzle 41 4.9 39 4 94 94 NNE 18 30 30.23 1024 10 16.0934 0.01 0.254
6:58 pm 18:58 Cloudy 40 4.4 38 3.5 94 94 NNE 17 28 30.25 1025 10 16.0934 N/A
7:59 pm 19:59 Cloudy 39 4.1 38 3.4 95 95 NNE 15 24 30.26 1025 10 16.0934 N/A
8:58 pm 20:58 Cloudy 38 3.6 37 2.8 95 95 NE 12 19 30.29 1026 10 16.0934 N/A
9:58 pm 21:58 Cloudy with Light Showers 39 3.7 37 2.9 95 95 NE 8 13 30.32 1027 10 16.0934 N/A
10:58 pm 22:58 Cloudy 39 3.9 37 3 94 94 N 6 9 30.32 1027 10 16.0934 N/A
11:58 pm 23:58 Cloudy 39 4 37 3 93 93 Calm 30.32 1027 10 16.0934 N/A

Powered by AerisWeather